Tracking 29594 objects as of 21-Sep-2024
HD Live streaming from Space Station
objects crossing your sky now

TRISAT

Track TRISAT now!
10-day predictions
TRISAT is classified as:


NORAD ID: 46280
Int'l Code: 2020-061J
Perigee: 287.8 km
Apogee: 300.2 km
Inclination: 97.3 °
Period: 90.3 minutes
Semi major axis: 6665 km
RCS: Unknown
Launch date: September 3, 2020
Source: Republic of Slovenia (SVN)
Launch site: FRENCH GUIANA (FRGUI)

Uplink (MHz): 145.900
Downlink (MHz): 436.500
Beacon (MHz): 435.6125
Mode: 9600bps GMSK CCSDS
Call sign:
Status: Unknown

Your satellite tracking list
Your tracking list is empty




NASA's NSSDC Master Catalog

Two Line Element Set (TLE):
1 46280U 20061J   24264.77634197  .00793804  27658-3  20052-2 0  9994
2 46280  97.3085 339.0683 0009340 250.7909 109.2357 15.95517710224774
Source of the keplerian elements: AFSPC